Miscellaneous Local Product
Issued by NWS North Platte, NE

Home | Current Version | Previous Version | Text Only | Print | Product List | Glossary On
Versions: 1 2 3 4 5 6 7 8 9 10 11 12 13 14 15 16 17 18 19 20 21 22 23 24 25 26 27 28 29 30 31 32 33 34 35 36 37 38 39 40 41 42 43 44 45 46 47 48 49 50
000
AXUS43 KLBF 212310
MISLBF


WESTERN AND NORTH CENTRAL NEBRASKA HOURLY WEATHER ROUNDUP
NATIONAL WEATHER SERVICE NORTH PLATTE NE
600 PM CDT SUN SEP 21 2014

***STATIONS NOT REPORTING VARIABLES SUCH AS SKY/WEATHER OR
PRESSURE ARE PROVIDED BY THE NEBRASKA DEPARTMENT OF
ROADS...RAWS...AND APRS NETWORKS...AND ARE NOT UNDER
NATIONAL WEATHER SERVICE QUALITY CONTROL***

...OBSERVATIONS IN AND NEAR THE EASTERN PANHANDLE OF NEBRASKA...

CITY           SKY/WX    TMP DP  RH WIND       PRES   REMARKS
PINE RIDGE     SUNNY     73  38  27 E6        30.27F
CHADRON        SUNNY     76  41  28 E9        30.25S
ALLIANCE       SUNNY     74  39  28 S9        30.27F
SIDNEY         MOSUNNY   73  40  30 SE10      30.31S
WHITECLAY        N/A     72  39  29 E6          N/A
RUSHVILLE        N/A     74  27  17 SE15        N/A
CRESCENT LAKE    N/A     73  40  29 S5          N/A
LISCO            N/A     77  33  20 E9          N/A
BIG SPRINGS      N/A     74  44  33 E3          N/A
$$

...OBSERVATIONS IN NORTH CENTRAL NEBRASKA...

CITY           SKY/WX    TMP DP  RH WIND       PRES   REMARKS
VALENTINE      SUNNY     73  36  25 N8        30.27F
THEDFORD       SUNNY     74  36  25 N8        30.28F
AINSWORTH      SUNNY     70  38  31 N6        30.28S
O`NEILL        SUNNY     70  45  40 N8        30.26S
ORD            SUNNY     71  41  33 NE9       30.24F
BROKEN BOW     SUNNY     76  38  25 NE9       30.26S
SPRINGVIEW       N/A     72  43  34 NE3         N/A
ROSE             N/A     76  45  33 N6          N/A
NEWPORT          N/A     72  43  34 NE7         N/A
COMSTOCK         N/A     79  39  23 N7          N/A
CHAMBERS         N/A     69  41  36 N3G13       N/A
$$

...OBSERVATIONS IN SOUTHWEST NEBRASKA AND FAR NORTHEAST COLORADO...

CITY           SKY/WX    TMP DP  RH WIND       PRES   REMARKS
WRAY           MOCLDY    75  38  26 SE5       30.29S
HOLYOKE        FAIR      73  39  29 E10       30.29S
IMPERIAL       MOSUNNY   74  39  28 SE3       30.28S
OGALLALA       MOSUNNY   76  41  28 CALM      30.27F
NORTH PLATTE   SUNNY     74  40  29 NE8       30.27S
MCCOOK         SUNNY     77  38  24 VRB6      30.26S
LEXINGTON      SUNNY     74  38  27 N7        30.26S
PAXTON           N/A     77  42  28 NE3         N/A
SUTHERLAND       N/A     81  32  17 E3          N/A
BRADY            N/A     75  40  28 CALM        N/A
GOTHENBURG       N/A     75  33  22 N6          N/A
CALLAWAY         N/A     76  41  28 N8          N/A
$$

...SOME WEATHER OBSERVATIONS FROM AROUND THE REGION...

CITY           SKY/WX    TMP DP  RH WIND       PRES   REMARKS
DENVER         CLOUDY    72  50  45 NW9       30.27R
LARAMIE        LGT RAIN  61  48  62 S9        30.37R
CHEYENNE       PTSUNNY   67  44  43 SE10      30.33S
SCOTTSBLUFF    MOSUNNY   74  42  31 E16       30.27F
RAPID CITY     SUNNY     73  37  27 SE12      30.25F
PIERRE         SUNNY     72  41  32 W6        30.23S
WINNER         FAIR      74  38  27 CALM      30.25F
SIOUX FALLS    MOSUNNY   70  45  40 N9        30.22S
OMAHA          MOSUNNY   71  47  42 N15       30.21R
GRAND ISLAND   SUNNY     73  42  32 N9        30.25S
KANSAS CITY    MOSUNNY   72  49  44 NW13      30.16R
WICHITA        MOSUNNY   81  39  22 N14G21    30.18R
HAYS           SUNNY     77  39  25 NE10      30.23S
LIBERAL        SUNNY     81  45  28 E12G18    30.23S
GOODLAND       PTSUNNY   73  40  30 SE6       30.29F
$$



USA.gov is the U.S. government's official web portal to all federal, state and local government web resources and services.